Location: Artiguedieu
(43.5000°N, 0.5454°E)
Time: 20:57:05
(UTC+00:00)

Transit 2A - Pass Details

Date: 28 July 2021
Orbit: 594 x 964 km, 66.7° (Epoch: 28 September)

Event Time Altitude Azimuth Distance (km) Brightness Sun altitude
Rises 09:12:45 0° 274° (W) 2,875 8.6 46.5°
Reaches altitude 10° 09:16:45 10° 311° (NW) 2,032 7.9 47.2°
Maximum altitude 09:18:04 11° 328° (NNW) 1,984 7.9 47.4°
Drops below altitude 10° 09:19:25 10° 345° (NNW) 2,084 8.1 47.6°
Sets 09:23:44 0° 20° (NNE) 3,099 9.1 48.4°
